TimePST,TemperatureF,Dew PointF,Humidity,Sea Level PressureIn,VisibilityMPH,Wind Direction,Wind SpeedMPH,Gust SpeedMPH,PrecipitationIn,Events,Conditions,WindDirDegrees,DateUTC
12:58 AM,39.6,38.3,95,30.20,10.0,SE,6.9,-,N/A,,Overcast,140,2012-12-06 08:58:00
1:58 AM,41.4,38.7,90,30.20,10.0,SSE,6.9,-,N/A,,Mostly Cloudy,160,2012-12-06 09:58:00
2:18 AM,41.0,39.2,93,30.18,10.0,SSE,6.9,-,N/A,,Overcast,160,2012-12-06 10:18:00
2:33 AM,41.0,39.2,93,30.18,10.0,SSE,8.1,-,N/A,,Overcast,160,2012-12-06 10:33:00
2:48 AM,41.0,39.2,93,30.18,10.0,SSE,6.9,-,N/A,,Overcast,160,2012-12-06 10:48:00
2:58 AM,41.5,38.8,90,30.19,10.0,South,5.8,-,N/A,,Overcast,170,2012-12-06 10:58:00
3:08 AM,41.0,39.2,93,30.17,10.0,South,5.8,-,N/A,,Overcast,170,2012-12-06 11:08:00
3:13 AM,42.8,39.2,87,30.17,10.0,South,5.8,-,N/A,,Overcast,170,2012-12-06 11:13:00
3:28 AM,42.8,39.2,87,30.17,10.0,SSE,9.2,-,N/A,,Overcast,160,2012-12-06 11:28:00
3:58 AM,42.3,38.1,85,30.19,10.0,South,9.2,-,N/A,,Overcast,170,2012-12-06 11:58:00
4:13 AM,42.8,37.4,81,30.16,10.0,SSE,10.4,-,N/A,,Overcast,160,2012-12-06 12:13:00
4:38 AM,42.8,37.4,81,30.16,10.0,South,9.2,-,N/A,,Mostly Cloudy,170,2012-12-06 12:38:00
4:58 AM,42.1,38.3,86,30.17,10.0,SSE,6.9,-,N/A,,Overcast,150,2012-12-06 12:58:00
5:18 AM,42.8,37.4,81,30.15,10.0,SSE,6.9,-,N/A,,Overcast,160,2012-12-06 13:18:00
5:58 AM,42.3,38.1,85,30.16,10.0,South,5.8,-,N/A,,Overcast,170,2012-12-06 13:58:00
6:18 AM,42.8,37.4,81,30.13,10.0,SSE,9.2,-,N/A,,Mostly Cloudy,160,2012-12-06 14:18:00
6:58 AM,42.4,38.1,85,30.14,10.0,SSE,11.5,-,N/A,,Mostly Cloudy,160,2012-12-06 14:58:00
7:21 AM,42.8,37.4,81,30.12,10.0,South,8.1,-,N/A,,Overcast,170,2012-12-06 15:21:00
7:32 AM,42.8,39.2,87,30.12,10.0,SSE,8.1,-,N/A,,Overcast,160,2012-12-06 15:32:00
7:42 AM,42.8,37.4,81,30.12,10.0,South,9.2,-,N/A,,Overcast,180,2012-12-06 15:42:00
7:58 AM,42.4,38.3,85,30.13,10.0,South,9.2,-,0.00,,Overcast,170,2012-12-06 15:58:00
8:53 AM,42.8,37.4,81,30.12,10.0,SSE,15.0,-,N/A,,Mostly Cloudy,160,2012-12-06 16:53:00
8:58 AM,43.0,38.3,84,30.13,10.0,SSE,13.8,-,N/A,,Mostly Cloudy,160,2012-12-06 16:58:00
9:53 AM,42.8,39.2,87,30.12,10.0,SSE,11.5,-,N/A,,Overcast,160,2012-12-06 17:53:00
9:58 AM,43.5,39.6,86,30.14,10.0,South,10.4,-,N/A,,Overcast,170,2012-12-06 17:58:00
10:02 AM,42.8,39.2,87,30.12,10.0,SSE,12.7,-,N/A,,Overcast,160,2012-12-06 18:02:00
10:12 AM,42.8,39.2,87,30.12,10.0,SSE,11.5,-,N/A,,Light Drizzle,160,2012-12-06 18:12:00
10:27 AM,42.8,41.0,93,30.11,10.0,South,11.5,-,N/A,,Light Drizzle,170,2012-12-06 18:27:00
10:29 AM,42.8,41.0,93,30.11,10.0,South,10.4,-,N/A,,Mostly Cloudy,190,2012-12-06 18:29:00
10:30 AM,42.8,41.0,93,30.11,10.0,South,9.2,-,N/A,,Light Drizzle,190,2012-12-06 18:30:00
10:35 AM,42.8,41.0,93,30.12,10.0,South,10.4,-,N/A,,Light Drizzle,170,2012-12-06 18:35:00
10:40 AM,42.8,41.0,93,30.12,10.0,South,10.4,-,N/A,,Light Drizzle,180,2012-12-06 18:40:00
10:50 AM,42.8,41.0,93,30.12,10.0,South,10.4,-,N/A,,Light Drizzle,180,2012-12-06 18:50:00
10:58 AM,43.0,40.3,90,30.14,10.0,South,9.2,-,0.02,,Light Drizzle,190,2012-12-06 18:58:00
11:19 AM,42.8,41.0,93,30.10,10.0,South,12.7,-,N/A,,Overcast,180,2012-12-06 19:19:00
11:35 AM,42.8,41.0,93,30.10,10.0,South,11.5,-,N/A,,Light Drizzle,170,2012-12-06 19:35:00
11:55 AM,42.8,41.0,93,30.10,8.0,South,8.1,-,N/A,Rain,Light Rain,180,2012-12-06 19:55:00
11:58 AM,43.0,40.6,91,30.12,7.0,South,10.4,-,0.03,Rain,Light Rain,180,2012-12-06 19:58:00
12:23 PM,42.8,41.0,93,30.10,5.0,SSW,6.9,-,N/A,Rain,Light Rain,200,2012-12-06 20:23:00
12:28 PM,42.8,41.0,93,30.10,4.0,SSW,6.9,-,N/A,Rain,Light Rain,210,2012-12-06 20:28:00
12:43 PM,42.8,41.0,93,30.10,5.0,South,8.1,-,N/A,Rain,Light Rain,180,2012-12-06 20:43:00
12:53 PM,42.8,41.0,93,30.09,10.0,South,9.2,-,N/A,Rain,Light Rain,170,2012-12-06 20:53:00
12:58 PM,43.0,41.0,93,30.11,10.0,South,8.1,-,0.11,,Light Drizzle,170,2012-12-06 20:58:00
1:04 PM,42.8,41.0,93,30.09,10.0,SSE,9.2,-,N/A,,Overcast,160,2012-12-06 21:04:00
1:26 PM,42.8,41.0,93,30.08,10.0,SSE,10.4,-,N/A,,Light Drizzle,160,2012-12-06 21:26:00
1:51 PM,42.8,41.0,93,30.07,10.0,SSE,10.4,-,N/A,Rain,Light Rain,160,2012-12-06 21:51:00
1:58 PM,42.8,41.0,93,30.09,10.0,SSE,9.2,-,0.04,Rain,Light Rain,160,2012-12-06 21:58:00
2:03 PM,42.8,41.0,93,30.07,10.0,South,9.2,-,N/A,,Light Drizzle,180,2012-12-06 22:03:00
2:08 PM,42.8,41.0,93,30.07,10.0,South,10.4,-,N/A,Rain,Light Rain,180,2012-12-06 22:08:00
2:18 PM,42.8,41.0,93,30.07,10.0,South,9.2,-,N/A,,Mostly Cloudy,170,2012-12-06 22:18:00
2:23 PM,42.8,41.0,93,30.07,10.0,South,9.2,-,N/A,,Mostly Cloudy,170,2012-12-06 22:23:00
2:25 PM,42.8,41.0,93,30.07,10.0,South,8.1,-,N/A,,Light Drizzle,170,2012-12-06 22:25:00
2:34 PM,42.8,41.0,93,30.07,10.0,South,8.1,-,N/A,,Mostly Cloudy,170,2012-12-06 22:34:00
2:49 PM,42.8,42.8,100,30.07,10.0,South,8.1,-,N/A,,Overcast,190,2012-12-06 22:49:00
2:54 PM,42.8,42.8,100,30.07,10.0,South,8.1,-,N/A,,Overcast,170,2012-12-06 22:54:00
2:58 PM,43.5,41.9,94,30.09,10.0,SSE,8.1,-,0.01,,Overcast,150,2012-12-06 22:58:00
3:38 PM,42.8,42.8,100,30.07,10.0,South,8.1,-,N/A,,Overcast,170,2012-12-06 23:38:00
3:58 PM,43.5,42.1,95,30.10,10.0,South,8.1,-,0.02,Rain,Light Rain,180,2012-12-06 23:58:00
4:13 PM,42.8,42.8,100,30.08,10.0,South,5.8,-,N/A,Rain,Light Rain,190,2012-12-07 00:13:00
4:18 PM,42.8,42.8,100,30.08,10.0,SSW,8.1,-,N/A,,Light Drizzle,200,2012-12-07 00:18:00
4:33 PM,42.8,41.0,93,30.08,9.0,South,8.1,-,N/A,,Light Drizzle,190,2012-12-07 00:33:00
4:34 PM,42.8,41.0,93,30.08,10.0,SSW,6.9,-,N/A,,Overcast,200,2012-12-07 00:34:00
4:44 PM,42.8,41.0,93,30.08,10.0,SSE,8.1,-,N/A,,Mostly Cloudy,160,2012-12-07 00:44:00
4:58 PM,43.2,41.7,95,30.10,10.0,South,6.9,-,0.03,,Mostly Cloudy,180,2012-12-07 00:58:00
5:58 PM,42.8,40.8,93,30.10,10.0,South,10.4,-,N/A,,Scattered Clouds,180,2012-12-07 01:58:00
6:58 PM,41.9,39.9,93,30.12,10.0,SSE,8.1,-,N/A,,Clear,160,2012-12-07 02:58:00
7:58 PM,39.4,38.5,97,30.13,10.0,SSE,8.1,-,N/A,,Clear,150,2012-12-07 03:58:00
8:58 PM,38.8,38.7,99,30.15,10.0,SE,6.9,-,N/A,,Clear,140,2012-12-07 04:58:00
9:58 PM,38.7,38.3,99,30.14,10.0,SE,9.2,-,N/A,,Clear,140,2012-12-07 05:58:00
10:58 PM,40.3,40.1,99,30.14,10.0,SE,8.1,-,N/A,,Overcast,140,2012-12-07 06:58:00
11:58 PM,41.0,40.1,97,30.14,10.0,SSE,8.1,-,N/A,,Overcast,160,2012-12-07 07:58:00